Location: Unspecified
(0.0000°N, 0.0000°E)
Time: 06:28:46
(UTC+00:00)

Altair - Visible Passes

Search period start: 08 February 2023 00:00
Search period end: 18 February 2023 00:00
Orbit: 1501 x 1683 km, 47.2° (Epoch: 07 February)

Date Brightness Start Highest point End Pass type
(mag) Time Alt. Az. Time Alt. Az. Time Alt. Az.
08 Feb 9.6 01:50:24 15° ESE 01:50:24 15° ESE 01:51:51 10° ESE visible
08 Feb 7.8 03:48:27 54° SW 03:48:27 54° SW 03:57:27 10° SSE visible
09 Feb 8.0 03:25:03 50° S 03:25:03 50° S 03:32:24 10° SSE visible
10 Feb 8.4 03:01:36 40° SSE 03:01:36 40° SSE 03:07:19 10° SSE visible
10 Feb 9.2 04:59:39 10° WSW 05:02:40 12° SW 05:06:03 10° SSW visible
11 Feb 8.9 02:38:06 29° SSE 02:38:06 29° SSE 02:42:12 10° SE visible
11 Feb 9.1 04:36:08 14° SW 04:37:21 14° SW 04:42:04 10° SSW visible
12 Feb 9.3 02:14:33 21° SE 02:14:33 21° SE 02:17:03 10° SE visible
12 Feb 9.0 04:12:35 16° SW 04:12:35 16° SW 04:17:45 10° S visible
13 Feb 9.6 01:50:57 14° SE 01:50:57 14° SE 01:51:52 10° SE visible
13 Feb 9.1 03:48:59 18° SSW 03:48:59 18° SSW 03:53:14 10° S visible
14 Feb 9.2 03:25:20 18° SSW 03:25:20 18° SSW 03:28:36 10° S visible
15 Feb 9.3 03:01:38 16° S 03:01:38 16° S 03:03:52 10° S visible
16 Feb 9.5 02:37:53 13° S 02:37:53 13° S 02:39:04 10° S visible
17 Feb 9.7 02:14:06 10° S 02:14:06 10° S 02:14:13 10° S visible
